Location: Hamilton Branch State Park
(33.7552°N, 82.2209°W)
Time: 19:45:57
(UTC-04:00)

Hubble Space Telescope - Pass Details

Date: 19 September 2019
Orbit: 536 x 540 km, 28.5° (Epoch: 14 October)

Event Time Altitude Azimuth Distance (km) Brightness Sun altitude
Exits shadow 05:31:33 36° 170° (S) 846 1.6 -21.9°
Drops below altitude 10° 05:34:58 10° 117° (ESE) 1,779 4.0 -21.2°
Sets 05:37:20 0° 109° (ESE) 2,670 5.2 -20.8°
